Time,TemperatureF,DewpointF,PressureIn,WindDirection,WindDirectionDegrees,WindSpeedMPH,WindSpeedGustMPH,Humidity,HourlyPrecipIn,Conditions,Clouds,dailyrainin,SoftwareType,DateUTC
2013-10-05 00:12:00,57.6,41.1,30.24,NNW,337,0.0,-999.0,54,-99.99,,,0.00,Acu-Link.com,2013-10-05 07:12:00,
2013-10-05 00:27:00,56.7,41.2,30.25,NNW,337,0.0,-999.0,56,-99.99,,,0.00,Acu-Link.com,2013-10-05 07:27:00,
2013-10-05 00:44:00,56.1,40.6,30.25,NNW,337,0.0,-999.0,56,-99.99,,,0.00,Acu-Link.com,2013-10-05 07:44:00,
2013-10-05 00:59:00,55.9,40.9,30.26,NNW,337,0.0,-999.0,57,-99.99,,,0.00,Acu-Link.com,2013-10-05 07:59:00,
2013-10-05 01:15:00,55.0,40.9,30.25,NNW,337,0.0,-999.0,59,-99.99,,,0.00,Acu-Link.com,2013-10-05 08:15:00,
2013-10-05 01:30:00,54.3,40.7,30.26,NNW,337,0.0,-999.0,60,-99.99,,,0.00,Acu-Link.com,2013-10-05 08:30:00,
2013-10-05 01:45:00,53.8,41.1,30.26,NNW,337,0.0,-999.0,62,-99.99,,,0.00,Acu-Link.com,2013-10-05 08:45:00,
2013-10-05 02:01:00,54.0,41.3,30.26,NNW,337,0.0,-999.0,62,-99.99,,,0.00,Acu-Link.com,2013-10-05 09:01:00,
2013-10-05 02:16:00,53.4,41.1,30.26,NNW,337,0.0,-999.0,63,-99.99,,,0.00,Acu-Link.com,2013-10-05 09:16:00,
2013-10-05 02:31:00,53.4,40.7,30.27,NNW,337,0.0,-999.0,62,-99.99,,,0.00,Acu-Link.com,2013-10-05 09:31:00,
2013-10-05 02:46:00,52.2,41.2,30.27,NNW,337,0.0,-999.0,66,-99.99,,,0.00,Acu-Link.com,2013-10-05 09:46:00,
2013-10-05 03:01:00,52.5,41.1,30.27,NNW,337,0.0,-999.0,65,-99.99,,,0.00,Acu-Link.com,2013-10-05 10:01:00,
2013-10-05 03:16:00,51.1,40.9,30.27,NNW,337,0.0,-999.0,68,-99.99,,,0.00,Acu-Link.com,2013-10-05 10:16:00,
2013-10-05 03:32:00,50.9,40.3,30.28,NNW,337,0.0,-999.0,67,-99.99,,,0.00,Acu-Link.com,2013-10-05 10:32:00,
2013-10-05 03:47:00,51.1,40.1,30.27,NNW,337,0.0,-999.0,66,-99.99,,,0.00,Acu-Link.com,2013-10-05 10:47:00,
2013-10-05 04:02:00,50.7,40.9,30.29,NNW,337,0.0,-999.0,69,-99.99,,,0.00,Acu-Link.com,2013-10-05 11:02:00,
2013-10-05 04:17:00,50.2,40.8,30.29,NNW,337,0.0,-999.0,70,-99.99,,,0.00,Acu-Link.com,2013-10-05 11:17:00,
2013-10-05 04:32:00,49.5,40.9,30.29,NNW,337,0.0,-999.0,72,-99.99,,,0.00,Acu-Link.com,2013-10-05 11:32:00,
2013-10-05 04:47:00,49.6,41.7,30.29,NNW,337,0.0,-999.0,74,-99.99,,,0.00,Acu-Link.com,2013-10-05 11:47:00,
2013-10-05 05:03:00,48.4,41.5,30.29,NNW,337,0.0,-999.0,77,-99.99,,,0.00,Acu-Link.com,2013-10-05 12:03:00,
2013-10-05 05:18:00,48.2,41.0,30.30,NNW,337,0.0,-999.0,76,-99.99,,,0.00,Acu-Link.com,2013-10-05 12:18:00,
2013-10-05 05:33:00,48.4,41.5,30.30,NNW,337,0.0,-999.0,77,-99.99,,,0.00,Acu-Link.com,2013-10-05 12:33:00,
2013-10-05 05:49:00,47.3,41.4,30.31,NNW,337,0.0,-999.0,80,-99.99,,,0.00,Acu-Link.com,2013-10-05 12:49:00,
2013-10-05 06:04:00,47.8,41.3,30.31,NNW,337,0.0,-999.0,78,-99.99,,,0.00,Acu-Link.com,2013-10-05 13:04:00,
2013-10-05 06:19:00,47.7,41.5,30.32,NNW,337,0.0,-999.0,79,-99.99,,,0.00,Acu-Link.com,2013-10-05 13:19:00,
2013-10-05 06:35:00,46.9,41.4,30.32,NNW,337,0.0,-999.0,81,-99.99,,,0.00,Acu-Link.com,2013-10-05 13:35:00,
2013-10-05 06:50:00,46.0,40.8,30.32,NNW,337,0.0,-999.0,82,-99.99,,,0.00,Acu-Link.com,2013-10-05 13:50:00,
2013-10-05 07:05:00,46.2,40.7,30.32,NNW,337,0.0,-999.0,81,-99.99,,,0.00,Acu-Link.com,2013-10-05 14:05:00,
2013-10-05 07:20:00,46.6,41.1,30.33,NNW,337,0.0,-999.0,81,-99.99,,,0.00,Acu-Link.com,2013-10-05 14:20:00,
2013-10-05 07:36:00,46.9,41.1,30.33,NNW,337,1.1,-999.0,80,-99.99,,,0.00,Acu-Link.com,2013-10-05 14:36:00,
2013-10-05 07:51:00,49.6,39.9,30.33,NNW,337,1.7,-999.0,69,-99.99,,,0.00,Acu-Link.com,2013-10-05 14:51:00,
2013-10-05 08:06:00,50.4,39.1,30.34,NNW,337,0.0,-999.0,65,-99.99,,,0.00,Acu-Link.com,2013-10-05 15:06:00,
2013-10-05 08:22:00,52.5,40.3,30.35,NNW,337,0.0,-999.0,63,-99.99,,,0.00,Acu-Link.com,2013-10-05 15:22:00,
2013-10-05 08:37:00,53.8,41.1,30.34,NNW,337,0.0,-999.0,62,-99.99,,,0.00,Acu-Link.com,2013-10-05 15:37:00,
2013-10-05 08:52:00,55.8,41.2,30.35,NNW,337,0.0,-999.0,58,-99.99,,,0.00,Acu-Link.com,2013-10-05 15:52:00,
2013-10-05 09:08:00,57.2,41.2,30.35,NNW,337,2.2,-999.0,55,-99.99,,,0.00,Acu-Link.com,2013-10-05 16:08:00,
2013-10-05 09:23:00,59.7,42.0,30.36,NNW,337,0.0,-999.0,52,-99.99,,,0.00,Acu-Link.com,2013-10-05 16:23:00,
2013-10-05 09:38:00,61.5,43.2,30.35,NNW,337,1.1,-999.0,51,-99.99,,,0.00,Acu-Link.com,2013-10-05 16:38:00,
2013-10-05 09:53:00,63.0,44.1,30.36,NNW,337,0.0,-999.0,50,-99.99,,,0.00,Acu-Link.com,2013-10-05 16:53:00,
2013-10-05 10:09:00,64.2,44.6,30.35,NNW,337,3.2,-999.0,49,-99.99,,,0.00,Acu-Link.com,2013-10-05 17:09:00,
2013-10-05 10:24:00,65.3,44.5,30.35,NW,315,2.7,-999.0,47,-99.99,,,0.00,Acu-Link.com,2013-10-05 17:24:00,
2013-10-05 10:39:00,67.5,43.6,30.35,NW,315,2.7,-999.0,42,-99.99,,,0.00,Acu-Link.com,2013-10-05 17:39:00,
2013-10-05 10:54:00,69.3,43.9,30.34,NNW,337,2.2,-999.0,40,-99.99,,,0.00,Acu-Link.com,2013-10-05 17:54:00,
2013-10-05 11:09:00,70.5,43.0,30.34,North,0,1.7,-999.0,37,-99.99,,,0.00,Acu-Link.com,2013-10-05 18:09:00,
2013-10-05 11:24:00,72.0,44.3,30.34,NNW,337,3.7,-999.0,37,-99.99,,,0.00,Acu-Link.com,2013-10-05 18:24:00,
2013-10-05 11:39:00,73.6,45.0,30.33,WNW,292,4.2,-999.0,36,-99.99,,,0.00,Acu-Link.com,2013-10-05 18:39:00,
2013-10-05 11:55:00,75.2,45.7,30.32,NNW,337,4.2,-999.0,35,-99.99,,,0.00,Acu-Link.com,2013-10-05 18:55:00,
2013-10-05 12:10:00,76.8,44.7,30.31,NNW,337,3.7,-999.0,32,-99.99,,,0.00,Acu-Link.com,2013-10-05 19:10:00,
2013-10-05 12:25:00,77.9,44.8,30.31,West,270,4.2,-999.0,31,-99.99,,,0.00,Acu-Link.com,2013-10-05 19:25:00,
2013-10-05 12:40:00,79.2,41.3,30.30,WSW,247,3.7,-999.0,26,-99.99,,,0.00,Acu-Link.com,2013-10-05 19:40:00,
2013-10-05 12:55:00,80.2,43.2,30.29,NNE,22,2.7,-999.0,27,-99.99,,,0.00,Acu-Link.com,2013-10-05 19:55:00,
2013-10-05 13:10:00,79.9,40.9,30.28,WSW,247,4.2,-999.0,25,-99.99,,,0.00,Acu-Link.com,2013-10-05 20:10:00,
2013-10-05 13:26:00,81.1,41.9,30.27,NNW,337,4.2,-999.0,25,-99.99,,,0.00,Acu-Link.com,2013-10-05 20:26:00,
2013-10-05 13:41:00,82.6,41.0,30.26,West,270,3.7,-999.0,23,-99.99,,,0.00,Acu-Link.com,2013-10-05 20:41:00,
2013-10-05 13:56:00,82.0,40.5,30.25,WSW,247,2.2,-999.0,23,-99.99,,,0.00,Acu-Link.com,2013-10-05 20:56:00,
2013-10-05 14:12:00,83.3,40.5,30.24,East,90,1.7,-999.0,22,-99.99,,,0.00,Acu-Link.com,2013-10-05 21:12:00,
2013-10-05 14:27:00,83.5,39.4,30.23,South,180,3.2,-999.0,21,-99.99,,,0.00,Acu-Link.com,2013-10-05 21:27:00,
2013-10-05 14:42:00,84.4,41.4,30.23,NNE,22,2.2,-999.0,22,-99.99,,,0.00,Acu-Link.com,2013-10-05 21:42:00,
2013-10-05 14:57:00,83.8,39.7,30.23,WNW,292,2.2,-999.0,21,-99.99,,,0.00,Acu-Link.com,2013-10-05 21:57:00,
2013-10-05 15:13:00,84.0,38.6,30.21,WNW,292,0.0,-999.0,20,-99.99,,,0.00,Acu-Link.com,2013-10-05 22:13:00,
2013-10-05 15:28:00,85.5,39.8,30.18,WSW,247,1.7,-999.0,20,-99.99,,,0.00,Acu-Link.com,2013-10-05 22:28:00,
2013-10-05 15:43:00,84.0,38.6,30.17,West,270,3.2,-999.0,20,-99.99,,,0.00,Acu-Link.com,2013-10-05 22:43:00,
2013-10-05 15:58:00,84.2,38.8,30.16,West,270,1.7,-999.0,20,-99.99,,,0.00,Acu-Link.com,2013-10-05 22:58:00,
2013-10-05 16:13:00,84.2,38.8,30.16,NNE,22,3.7,-999.0,20,-99.99,,,0.00,Acu-Link.com,2013-10-05 23:13:00,
2013-10-05 16:28:00,85.3,39.7,30.16,NNW,337,2.7,-999.0,20,-99.99,,,0.00,Acu-Link.com,2013-10-05 23:28:00,
2013-10-05 16:43:00,85.1,38.2,30.17,NNW,337,2.2,-999.0,19,-99.99,,,0.00,Acu-Link.com,2013-10-05 23:43:00,
2013-10-05 16:59:00,84.7,39.2,30.19,NW,315,2.7,-999.0,20,-99.99,,,0.00,Acu-Link.com,2013-10-05 23:59:00,
2013-10-05 17:14:00,84.4,38.9,30.19,NNW,337,4.7,-999.0,20,-99.99,,,0.00,Acu-Link.com,2013-10-06 00:14:00,
2013-10-05 17:29:00,83.8,38.4,30.20,SW,225,3.2,-999.0,20,-99.99,,,0.00,Acu-Link.com,2013-10-06 00:29:00,
2013-10-05 17:44:00,84.6,39.1,30.20,WNW,292,2.7,-999.0,20,-99.99,,,0.00,Acu-Link.com,2013-10-06 00:44:00,
2013-10-05 17:59:00,84.9,40.6,30.20,West,270,1.7,-999.0,21,-99.99,,,0.00,Acu-Link.com,2013-10-06 00:59:00,
2013-10-05 18:15:00,81.0,40.8,30.20,West,270,1.7,-999.0,24,-99.99,,,0.00,Acu-Link.com,2013-10-06 01:15:00,
2013-10-05 18:30:00,78.4,43.5,30.20,West,270,0.0,-999.0,29,-99.99,,,0.00,Acu-Link.com,2013-10-06 01:30:00,
2013-10-05 18:45:00,76.1,43.3,30.20,West,270,1.1,-999.0,31,-99.99,,,0.00,Acu-Link.com,2013-10-06 01:45:00,
2013-10-05 19:00:00,74.7,43.7,30.21,West,270,0.0,-999.0,33,-99.99,,,0.00,Acu-Link.com,2013-10-06 02:00:00,
2013-10-05 19:16:00,72.1,43.7,30.21,West,270,0.0,-999.0,36,-99.99,,,0.00,Acu-Link.com,2013-10-06 02:16:00,
2013-10-05 19:31:00,70.3,43.5,30.21,West,270,0.0,-999.0,38,-99.99,,,0.00,Acu-Link.com,2013-10-06 02:31:00,
2013-10-05 19:46:00,68.5,41.9,30.21,West,270,0.0,-999.0,38,-99.99,,,0.00,Acu-Link.com,2013-10-06 02:46:00,
2013-10-05 20:02:00,66.0,42.2,30.21,West,270,0.0,-999.0,42,-99.99,,,0.00,Acu-Link.com,2013-10-06 03:02:00,
2013-10-05 20:17:00,66.2,43.6,30.22,West,270,0.0,-999.0,44,-99.99,,,0.00,Acu-Link.com,2013-10-06 03:17:00,
2013-10-05 20:32:00,65.5,43.0,30.23,West,270,0.0,-999.0,44,-99.99,,,0.00,Acu-Link.com,2013-10-06 03:32:00,
2013-10-05 20:48:00,64.0,42.8,30.22,West,270,0.0,-999.0,46,-99.99,,,0.00,Acu-Link.com,2013-10-06 03:48:00,
2013-10-05 21:03:00,63.3,42.7,30.22,West,270,0.0,-999.0,47,-99.99,,,0.00,Acu-Link.com,2013-10-06 04:03:00,
2013-10-05 21:18:00,62.4,43.5,30.24,West,270,0.0,-999.0,50,-99.99,,,0.00,Acu-Link.com,2013-10-06 04:18:00,
2013-10-05 21:33:00,60.6,43.9,30.24,WNW,292,0.0,-999.0,54,-99.99,,,0.00,Acu-Link.com,2013-10-06 04:33:00,
2013-10-05 21:48:00,60.8,44.0,30.24,WNW,292,0.0,-999.0,54,-99.99,,,0.00,Acu-Link.com,2013-10-06 04:48:00,
2013-10-05 22:04:00,59.2,46.6,30.25,WNW,292,0.0,-999.0,63,-99.99,,,0.00,Acu-Link.com,2013-10-06 05:04:00,
2013-10-05 22:19:00,59.2,45.8,30.24,WNW,292,0.0,-999.0,61,-99.99,,,0.00,Acu-Link.com,2013-10-06 05:19:00,
2013-10-05 22:35:00,59.2,45.8,30.25,WNW,292,0.0,-999.0,61,-99.99,,,0.00,Acu-Link.com,2013-10-06 05:35:00,
2013-10-05 22:50:00,59.5,45.2,30.24,WNW,292,0.0,-999.0,59,-99.99,,,0.00,Acu-Link.com,2013-10-06 05:50:00,
2013-10-05 23:06:00,58.3,44.9,30.24,WNW,292,0.0,-999.0,61,-99.99,,,0.00,Acu-Link.com,2013-10-06 06:06:00,
2013-10-05 23:21:00,58.3,44.9,30.24,WNW,292,0.0,-999.0,61,-99.99,,,0.00,Acu-Link.com,2013-10-06 06:21:00,
2013-10-05 23:37:00,58.3,44.0,30.24,WNW,292,0.0,-999.0,59,-99.99,,,0.00,Acu-Link.com,2013-10-06 06:37:00,
2013-10-05 23:53:00,58.3,44.0,30.24,WNW,292,0.0,-999.0,59,-99.99,,,0.00,Acu-Link.com,2013-10-06 06:53:00,